QPF
0.00 0.00 0.00 0.00 0.00 0.00 0.00 0.00 0.00 0.00 0.00 0.00 0.00 0.00 0.00 0.00 0.00 0.00 0.00 0.00 0.00 0.00 0.00 0.00 0.00 0.00 0.00 0.00 0.00 0.00 0.00 0.00 0.00 0.00 0.00 0.00 0.00 0.00 0.00 0.00 0.00 0.00 0.00 0.00 0.00
0.00 0.00 0.00 0.00 0.00 0.00 0.00 0.00 0.00 0.00 0.00 0.00 0.00 0.00 0.00 0.00 0.00 0.00 0.00 0.00 0.00 0.00 0.00 0.00 0.00 0.00 0.00 0.00 0.00 0.00 0.00 0.00 0.00 0.00 0.00 0.00 0.00 0.00 0.00 0.00 0.00 0.00 0.00 0.00 0.00
0.00 0.00 0.00 0.00 0.00 0.00 0.00 0.00 0.00 0.00 0.00 0.00 0.00 0.00 0.00 0.00 0.00 0.00 0.00 0.00 0.00 0.00 0.00 0.00 0.00 0.00 0.00 0.00 0.00 0.00 0.00 0.00 0.00 0.00 0.00 0.00 0.00 0.00 0.00 0.00 0.00 0.00 0.00 0.00 0.00
0.00 0.00 0.00 0.00 0.00 0.00 0.00 0.00 0.00 0.00 0.00 0.00 0.00 0.00 0.00 0.00 0.00 0.00 0.00 0.00 0.00 0.00 0.00 0.00 0.00 0.00 0.00 0.00 0.00 0.00 0.00 0.00 0.00 0.00 0.00 0.00 0.00 0.00 0.00 0.00 0.00 0.00 0.00 0.00 0.00
0.00 0.00 0.00 0.00 0.00 0.00 0.00 0.00 0.00 0.00 0.00 0.00 0.00 0.00 0.00 0.00 0.00 0.00 0.00 0.00 0.00 0.00 0.00 0.00 0.00 0.00 0.00 0.00 0.00 0.00 0.00 0.00 0.00 0.00 0.00 0.00 0.00 0.00 0.00 0.00 0.00 0.00 0.00 0.00 0.00
0.00 0.00 0.00 0.00 0.00 0.00 0.00 0.00 0.00 0.00 0.00 0.00 0.00 0.00 0.00 0.00 0.00 0.00 0.00 0.00 0.00 0.00 0.00 0.00 0.00 0.00 0.00 0.00 0.00 0.00 0.00 0.00 0.00 0.00 0.00 0.00 0.00 0.00 0.00 0.00 0.00 0.00 0.00 0.00 0.00
0.00 0.00 0.00 0.00 0.00 0.00 0.00 0.00 0.00 0.00 0.00 0.00 0.00 0.00 0.00 0.00 0.00 0.00 0.00 0.00 0.00 0.00 0.00 0.00 0.00 0.00 0.00 0.00 0.00 0.00 0.00 0.00 0.00 0.00 0.00 0.00 0.00 0.00 0.00 0.00 0.00 0.00 0.00 0.00 0.00
0.00 0.00 0.00 0.00 0.00 0.00 0.00 0.00 0.00 0.00 0.00 0.00 0.00 0.00 0.00 0.00 0.00 0.00 0.00 0.00 0.00 0.00 0.00 0.00 0.00 0.00 0.00 0.00 0.00 0.00 0.00 0.00 0.00 0.00 0.00 0.00 0.00 0.00 0.00 0.00 0.00 0.00 0.00 0.00 0.00
0.00 0.00 0.00 0.00 0.00 0.00 0.00 0.00 0.00 0.00 0.00 0.00 0.00 0.00 0.00 0.00 0.00 0.00 0.00 0.00 0.00 0.00 0.00 0.00 0.00 0.00 0.00 0.00 0.00 0.00 0.00 0.00 0.00 0.00 0.00 0.00 0.00 0.00 0.00 0.00 0.00 0.00 0.00 0.00 0.00
0.00 0.00 0.00 0.00 0.00 0.00 0.00 0.00 0.00 0.00 0.00 0.00 0.00 0.00 0.00 0.00 0.00 0.00 0.00 0.00 0.00 0.00 0.00 0.00 0.00 0.00 0.00 0.00 0.00 0.00 0.00 0.00 0.00 0.00 0.00 0.00 0.00 0.00 0.00 0.00 0.00 0.00 0.00 0.00 0.00
0.00 0.00 0.00 0.00 0.00 0.00 0.00 0.00 0.00 0.00 0.00 0.00 0.00 0.00 0.00 0.00 0.00 0.00 0.00 0.00 0.00 0.00 0.00 0.00 0.00 0.00 0.00 0.00 0.00 0.00 0.01 0.01 0.00 0.00 0.00 0.00 0.00 0.00 0.00 0.00 0.00 0.00 0.00 0.00 0.00
0.00 0.00 0.00 0.00 0.00 0.00 0.00 0.00 0.00 0.00 0.00 0.00 0.00 0.00 0.00 0.00 0.00 0.00 0.00 0.00 0.00 0.00 0.00 0.00 0.00 0.00 0.00 0.00 0.00 0.00 0.00 0.00 0.00 0.00 0.00 0.00 0.00 0.00 0.00 0.00 0.00 0.00 0.00 0.00 0.00
0.00 0.00 0.00 0.00 0.00 0.00 0.00 0.00 0.00 0.00 0.00 0.00 0.00 0.00 0.00 0.00 0.00 0.00 0.00 0.00 0.00 0.00 0.00 0.00 0.00 0.00 0.00 0.00 0.00 0.00 0.00 0.00 0.00 0.00 0.00 0.00 0.00 0.00 0.00 0.00 0.00 0.00 0.00 0.00 0.00
0.00 0.00 0.00 0.00 0.00 0.00 0.00 0.00 0.00 0.00 0.00 0.00 0.00 0.00 0.00 0.00 0.00 0.00 0.00 0.00 0.00 0.00 0.00 0.00 0.00 0.00 0.00 0.00 0.00 0.00 0.00 0.00 0.00 0.00 0.01 0.00 0.01 0.00 0.00 0.00 0.00 0.00 0.00 0.00 0.00
0.00 0.00 0.00 0.00 0.00 0.00 0.00 0.00 0.00 0.00 0.00 0.00 0.00 0.00 0.00 0.00 0.00 0.00 0.00 0.00 0.00 0.00 0.00 0.00 0.00 0.00 0.00 0.00 0.00 0.01 0.00 0.00 0.00 0.00 0.01 0.01 0.01 0.00 0.00 0.00 0.00 0.00 0.00 0.00 0.00
0.00 0.00 0.00 0.00 0.00 0.00 0.00 0.00 0.00 0.00 0.00 0.00 0.00 0.00 0.00 0.00 0.00 0.00 0.00 0.00 0.00 0.00 0.00 0.00 0.00 0.00 0.00 0.00 0.00 0.00 0.00 0.00 0.00 0.00 0.02 0.02 0.02 0.00 0.00 0.00 0.00 0.00 0.00 0.00 0.00
0.00 0.00 0.00 0.00 0.00 0.00 0.00 0.00 0.00 0.00 0.00 0.00 0.00 0.00 0.00 0.00 0.00 0.00 0.00 0.00 0.00 0.00 0.00 0.00 0.00 0.00 0.00 0.00 0.00 0.00 0.00 0.00 0.00 0.01 0.02 0.00 0.00 0.00 0.00 0.00 0.00 0.00 0.00 0.00 0.00
0.00 0.00 0.00 0.00 0.00 0.00 0.00 0.00 0.00 0.00 0.00 0.00 0.00 0.00 0.00 0.00 0.00 0.00 0.00 0.00 0.00 0.00 0.00 0.00 0.00 0.00 0.00 0.00 0.00 0.00 0.00 0.00 0.00 0.00 0.00 0.00 0.00 0.00 0.00 0.00 0.00 0.00 0.00 0.00 0.00
0.00 0.00 0.00 0.00 0.00 0.00 0.00 0.00 0.00 0.00 0.00 0.00 0.00 0.00 0.00 0.00 0.00 0.00 0.00 0.00 0.00 0.00 0.00 0.00 0.00 0.00 0.00 0.00 0.00 0.00 0.00 0.00 0.00 0.00 0.01 0.00 0.00 0.00 0.00 0.00 0.00 0.00 0.00 0.00 0.00
0.00 0.00 0.00 0.00 0.00 0.00 0.00 0.00 0.00 0.00 0.00 0.00 0.00 0.00 0.00 0.00 0.00 0.00 0.00 0.00 0.00 0.00 0.00 0.00 0.00 0.00 0.00 0.00 0.00 0.00 0.00 0.00 0.00 0.00 0.00 0.00 0.00 0.00 0.00 0.00 0.00 0.00 0.00 0.00 0.00
0.00 0.00 0.00 0.00 0.00 0.00 0.00 0.00 0.00 0.00 0.00 0.00 0.00 0.00 0.00 0.00 0.00 0.00 0.00 0.00 0.00 0.00 0.00 0.00 0.00 0.00 0.00 0.00 0.00 0.00 0.00 0.00 0.00 0.00 0.00 0.00 0.00 0.00 0.00 0.00 0.00 0.00 0.00 0.00 0.00
0.00 0.00 0.00 0.00 0.00 0.00 0.00 0.00 0.00 0.00 0.00 0.00 0.00 0.00 0.00 0.00 0.00 0.00 0.00 0.00 0.00 0.00 0.00 0.00 0.00 0.00 0.00 0.00 0.00 0.00 0.00 0.00 0.00 0.00 0.00 0.00 0.00 0.00 0.00 0.00 0.00 0.00 0.00 0.00 0.00
0.00 0.00 0.00 0.00 0.00 0.00 0.00 0.00 0.00 0.00 0.00 0.00 0.00 0.00 0.00 0.00 0.00 0.00 0.00 0.00 0.00 0.00 0.00 0.00 0.00 0.00 0.00 0.00 0.00 0.00 0.00 0.00 0.00 0.00 0.00 0.00 0.00 0.00 0.00 0.00 0.00 0.00 0.00 0.00 0.00
0.00 0.00 0.00 0.00 0.00 0.00 0.00 0.00 0.00 0.00 0.00 0.00 0.00 0.00 0.00 0.00 0.00 0.00 0.00 0.00 0.00 0.00 0.00 0.00 0.00 0.00 0.00 0.00 0.00 0.00 0.00 0.00 0.00 0.00 0.00 0.00 0.00 0.00 0.00 0.00 0.00 0.00 0.00 0.00 0.00
0.00 0.00 0.00 0.00 0.00 0.00 0.00 0.00 0.00 0.00 0.00 0.00 0.00 0.00 0.00 0.00 0.00 0.00 0.00 0.00 0.00 0.00 0.00 0.00 0.00 0.00 0.00 0.00 0.00 0.00 0.00 0.00 0.00 0.00 0.00 0.00 0.00 0.00 0.00 0.00 0.00 0.00 0.00 0.00 0.00
0.00 0.00 0.00 0.00 0.00 0.00 0.00 0.00 0.00 0.00 0.00 0.00 0.00 0.00 0.00 0.00 0.00 0.00 0.00 0.00 0.00 0.00 0.00 0.00 0.00 0.00 0.00 0.00 0.00 0.00 0.00 0.00 0.00 0.00 0.00 0.00 0.00 0.00 0.00 0.00 0.00 0.00 0.00 0.00 0.00
0.00 0.00 0.00 0.00 0.00 0.00 0.00 0.00 0.00 0.00 0.00 0.00 0.00 0.00 0.00 0.00 0.00 0.00 0.00 0.00 0.00 0.00 0.00 0.00 0.00 0.00 0.00 0.00 0.00 0.00 0.00 0.00 0.00 0.00 0.00 0.00 0.00 0.00 0.00 0.00 0.00 0.00 0.00 0.00 0.00
MSLP
1020.96 1020.57 1020.36 1020.07 1019.70 1019.25 1018.86 1018.59 1018.23 1018.05 1017.73 1017.40 1017.06 1016.78 1016.66 1016.44 1015.79 1015.33 1015.31 1016.18 1015.78 1015.54 1015.09 1014.17 1013.32 1013.12 1012.32 1011.84 1011.74 1011.19 1009.69 1007.70 1006.88 1006.54 1005.88 1006.11 1006.86 1007.93 1008.40 1008.67 1008.29 1007.54 1006.62 1006.29 1006.25
1021.06 1020.75 1020.40 1020.27 1019.72 1019.33 1018.72 1018.46 1018.11 1017.90 1017.64 1017.29 1017.06 1016.79 1016.62 1016.51 1015.41 1015.36 1016.10 1015.97 1015.72 1015.69 1015.00 1014.38 1013.75 1013.29 1012.36 1012.05 1011.65 1011.03 1009.24 1007.83 1007.36 1007.53 1007.41 1007.53 1007.66 1007.99 1008.47 1008.26 1007.98 1007.28 1006.92 1006.88 1006.69
1021.22 1020.68 1020.56 1020.24 1019.79 1019.21 1018.69 1018.37 1018.00 1017.71 1017.47 1017.12 1016.90 1016.77 1016.78 1016.41 1015.37 1015.64 1016.14 1016.06 1015.80 1015.68 1015.15 1014.67 1014.26 1013.63 1012.66 1012.14 1011.41 1010.49 1009.39 1008.64 1008.22 1008.25 1008.62 1008.43 1008.45 1008.55 1008.29 1007.51 1007.65 1007.28 1006.82 1006.86 1007.00
1021.27 1020.87 1020.72 1020.21 1019.80 1019.10 1018.51 1018.19 1017.90 1017.48 1017.13 1016.90 1016.71 1016.59 1016.48 1015.85 1015.76 1015.96 1016.23 1016.12 1015.90 1015.45 1014.93 1014.59 1014.20 1013.65 1012.90 1012.08 1011.59 1011.09 1010.34 1009.97 1009.72 1009.60 1009.46 1009.28 1009.25 1008.62 1008.31 1007.28 1007.81 1007.60 1007.47 1007.41 1007.31
1021.51 1021.10 1020.71 1020.02 1019.64 1018.90 1018.43 1018.03 1017.70 1017.28 1016.89 1016.73 1016.62 1016.48 1016.07 1015.41 1015.78 1016.09 1016.21 1015.80 1015.44 1015.09 1014.82 1014.63 1014.24 1013.67 1013.11 1012.42 1012.22 1011.59 1011.12 1010.83 1010.49 1010.34 1010.17 1010.06 1009.51 1008.94 1008.27 1008.18 1007.78 1007.53 1007.43 1007.25 1007.00
1021.45 1021.20 1020.61 1019.98 1019.47 1018.77 1018.36 1017.90 1017.50 1017.09 1016.75 1016.76 1016.66 1016.60 1015.85 1015.62 1016.11 1016.08 1016.09 1015.72 1015.32 1015.03 1014.67 1014.67 1014.39 1014.26 1013.80 1013.19 1012.90 1012.02 1011.81 1011.38 1011.11 1010.72 1010.36 1010.09 1009.32 1009.17 1008.42 1007.92 1007.52 1007.32 1006.89 1006.73 1006.54
1021.43 1021.13 1020.45 1019.95 1019.28 1018.62 1018.27 1017.79 1017.41 1017.07 1016.98 1016.85 1016.77 1016.03 1015.50 1016.37 1016.13 1016.03 1015.78 1015.45 1015.24 1014.96 1014.73 1014.49 1014.44 1014.56 1013.75 1013.29 1013.08 1012.92 1012.19 1011.39 1010.70 1010.23 1009.99 1009.79 1008.93 1008.21 1007.57 1007.41 1007.04 1006.80 1006.52 1006.30 1006.09
1021.42 1021.00 1020.35 1019.75 1019.14 1018.53 1018.14 1017.67 1017.30 1017.09 1017.01 1016.91 1016.85 1016.06 1015.59 1016.16 1015.91 1015.93 1015.68 1015.10 1014.89 1014.42 1014.46 1014.59 1014.66 1014.58 1014.25 1013.74 1013.17 1012.68 1011.85 1010.72 1009.69 1009.78 1009.53 1009.72 1007.91 1007.49 1007.00 1006.78 1006.72 1006.54 1006.21 1005.75 1005.44
1021.30 1020.79 1020.32 1019.71 1019.20 1018.56 1018.08 1017.74 1017.36 1017.10 1017.05 1016.79 1016.40 1016.14 1015.61 1016.06 1016.01 1016.15 1015.58 1015.15 1014.72 1014.64 1014.50 1014.65 1014.67 1014.16 1013.85 1013.55 1012.54 1011.47 1011.40 1010.62 1009.92 1009.85 1009.69 1009.64 1008.17 1007.62 1007.38 1007.13 1006.82 1006.49 1006.16 1005.63 1005.01
1021.18 1020.73 1020.25 1019.79 1019.18 1018.55 1018.12 1017.75 1017.50 1017.29 1016.70 1016.46 1016.36 1016.41 1015.86 1016.43 1016.62 1016.20 1015.70 1015.12 1014.84 1014.44 1014.45 1014.32 1014.22 1013.92 1013.55 1013.64 1013.28 1012.94 1012.30 1011.32 1010.28 1009.82 1009.56 1009.52 1008.43 1007.66 1007.19 1006.78 1006.18 1005.83 1005.60 1005.31 1004.96
1021.13 1020.71 1020.19 1019.74 1019.16 1018.73 1017.76 1017.53 1017.73 1017.13 1016.76 1017.57 1017.60 1017.04 1016.95 1017.27 1016.81 1016.15 1015.89 1014.65 1014.50 1014.11 1014.15 1014.24 1014.34 1014.22 1014.59 1014.61 1014.42 1014.05 1013.25 1011.77 1010.62 1009.74 1009.27 1009.03 1008.29 1007.83 1007.47 1007.41 1007.39 1006.88 1006.02 1005.46 1005.06
1021.11 1020.63 1020.15 1019.74 1019.31 1018.98 1017.99 1018.10 1019.68 1019.96 1018.64 1018.14 1017.97 1017.69 1017.63 1017.80 1016.99 1016.64 1016.34 1015.42 1014.97 1014.46 1014.47 1013.97 1014.19 1014.86 1015.01 1014.71 1014.24 1013.77 1012.74 1011.70 1010.56 1010.12 1010.49 1009.77 1008.67 1008.34 1008.64 1008.73 1008.96 1008.92 1008.33 1007.61 1006.84
1020.99 1020.57 1020.09 1019.74 1019.46 1019.12 1019.26 1019.88 1020.28 1019.99 1018.62 1018.11 1018.01 1017.74 1017.83 1017.95 1017.46 1017.07 1016.95 1016.31 1015.79 1015.09 1015.11 1014.77 1014.97 1014.97 1014.78 1014.41 1014.01 1013.84 1012.91 1012.09 1011.92 1011.91 1011.11 1010.08 1008.85 1009.24 1009.47 1009.58 1010.46 1010.46 1010.07 1009.09 1008.25
1020.86 1020.54 1020.16 1019.66 1019.77 1019.41 1019.84 1020.35 1020.32 1020.04 1018.83 1018.27 1017.63 1018.10 1017.80 1017.63 1017.52 1017.61 1017.66 1017.65 1016.36 1016.30 1016.10 1015.55 1015.32 1015.20 1015.04 1014.89 1014.44 1013.18 1013.14 1012.77 1012.05 1012.27 1011.24 1010.52 1009.91 1010.69 1011.26 1011.96 1012.26 1011.81 1010.99 1010.07 1008.95
1020.75 1020.52 1020.27 1019.84 1019.55 1019.45 1020.41 1020.30 1020.23 1019.84 1019.02 1018.27 1017.97 1018.38 1018.25 1018.01 1018.61 1017.51 1017.53 1017.40 1017.35 1017.40 1017.42 1016.15 1015.73 1015.55 1015.65 1014.88 1014.63 1013.91 1013.22 1012.14 1011.45 1011.73 1011.93 1010.62 1011.76 1013.23 1013.20 1013.55 1013.26 1012.75 1011.99 1010.90 1009.26
1020.60 1020.41 1020.23 1019.75 1019.59 1020.41 1020.42 1020.27 1020.13 1019.40 1018.87 1018.56 1018.41 1018.40 1018.22 1018.32 1018.62 1018.38 1017.71 1017.68 1018.01 1017.53 1016.91 1016.82 1016.34 1016.15 1015.72 1015.40 1014.68 1014.38 1012.82 1010.97 1010.61 1010.68 1010.87 1010.98 1011.91 1014.39 1015.83 1017.04 1016.15 1015.12 1013.44 1011.29 1007.74
1020.46 1020.34 1020.23 1019.96 1019.90 1020.36 1020.38 1019.85 1019.50 1019.46 1019.47 1019.42 1019.27 1019.18 1019.20 1019.11 1018.97 1018.90 1018.10 1017.97 1019.13 1018.67 1017.72 1016.83 1016.01 1016.13 1016.49 1015.74 1014.86 1014.75 1013.16 1011.27 1010.70 1010.53 1011.51 1011.95 1012.76 1016.66 1018.27 1018.94 1019.09 1017.86 1015.61 1012.26 1009.18
1020.38 1020.29 1020.22 1020.23 1020.29 1020.35 1020.12 1019.11 1019.68 1021.07 1020.57 1020.39 1020.17 1019.86 1019.86 1020.33 1019.76 1019.40 1018.89 1019.02 1020.03 1020.40 1019.37 1018.11 1016.50 1016.83 1017.34 1017.44 1017.54 1015.88 1015.75 1015.20 1013.89 1012.94 1012.65 1012.84 1014.87 1016.97 1019.10 1020.26 1020.27 1019.69 1017.50 1013.60 1011.51
1020.37 1019.90 1019.81 1020.09 1020.27 1020.29 1019.59 1019.91 1021.29 1021.64 1021.81 1021.57 1021.09 1020.87 1020.70 1020.93 1020.86 1019.71 1019.58 1020.20 1020.83 1021.24 1021.27 1019.87 1017.83 1017.28 1017.82 1018.12 1018.24 1017.07 1017.01 1017.19 1016.18 1014.78 1014.42 1015.04 1016.23 1017.59 1019.26 1020.01 1020.05 1019.06 1017.47 1015.85 1013.99
1020.15 1019.88 1019.40 1020.11 1020.18 1019.87 1019.56 1021.47 1022.13 1022.38 1022.54 1022.68 1022.38 1022.51 1022.27 1021.86 1021.27 1020.53 1020.28 1020.79 1021.11 1021.39 1021.66 1021.26 1019.77 1017.55 1017.72 1018.68 1019.08 1018.71 1018.74 1017.78 1016.81 1016.18 1015.35 1016.16 1018.52 1021.30 1021.67 1022.17 1021.91 1020.83 1019.97 1018.21 1016.18
1020.31 1020.08 1019.84 1020.08 1020.25 1019.67 1020.84 1022.25 1022.65 1023.08 1023.21 1023.41 1023.19 1023.28 1023.32 1023.22 1022.76 1021.94 1021.23 1021.02 1021.21 1021.38 1021.47 1021.44 1021.17 1018.41 1017.78 1019.84 1020.36 1019.52 1019.54 1019.07 1018.88 1018.47 1018.24 1018.38 1021.12 1023.97 1024.84 1025.13 1024.56 1023.63 1022.25 1020.51 1018.42
1020.22 1020.37 1019.90 1020.17 1020.48 1021.20 1021.88 1022.41 1023.09 1023.13 1023.50 1023.60 1023.58 1023.69 1024.02 1024.08 1023.76 1022.70 1021.80 1021.35 1021.74 1021.84 1021.59 1021.36 1021.25 1019.32 1019.23 1020.55 1020.69 1021.63 1021.55 1020.63 1019.71 1020.05 1020.25 1020.77 1022.64 1024.98 1026.14 1026.37 1025.96 1025.06 1023.92 1022.12 1020.40
1019.91 1019.72 1019.70 1019.80 1020.44 1021.49 1022.60 1022.73 1023.04 1023.11 1023.30 1023.61 1023.58 1023.94 1024.72 1024.71 1024.57 1023.39 1022.24 1021.81 1022.20 1022.17 1022.31 1021.99 1021.14 1019.82 1019.25 1020.84 1020.67 1021.39 1022.28 1021.94 1021.91 1021.64 1022.08 1022.32 1023.19 1025.06 1026.71 1026.83 1026.81 1026.36 1025.26 1023.72 1022.33
1020.02 1019.97 1019.90 1020.00 1020.55 1020.52 1021.68 1022.32 1022.92 1023.17 1023.28 1023.49 1023.57 1023.95 1024.49 1025.02 1024.81 1023.99 1022.68 1022.14 1022.48 1022.70 1022.76 1022.61 1022.05 1021.99 1022.32 1022.97 1023.45 1023.29 1023.22 1022.87 1022.59 1022.58 1023.46 1024.18 1025.08 1026.45 1027.22 1027.43 1027.70 1027.53 1026.72 1025.32 1024.40
1020.08 1020.43 1021.23 1021.03 1020.88 1020.58 1020.85 1021.48 1022.02 1022.79 1023.32 1023.43 1023.52 1023.99 1024.18 1024.79 1024.58 1024.06 1023.08 1022.36 1022.55 1022.89 1022.81 1022.78 1022.31 1022.46 1022.35 1022.87 1023.27 1023.69 1023.84 1024.20 1024.36 1024.97 1025.00 1025.15 1026.35 1028.27 1028.29 1029.11 1028.81 1029.00 1028.50 1026.43 1025.33
1019.71 1020.27 1021.31 1021.22 1020.82 1020.53 1020.96 1021.01 1021.10 1022.11 1022.51 1023.11 1023.36 1023.61 1024.15 1024.47 1024.07 1023.95 1023.68 1023.01 1023.21 1023.10 1022.96 1023.07 1022.49 1022.33 1021.46 1021.87 1022.77 1023.08 1023.87 1024.06 1025.15 1026.06 1025.94 1026.02 1026.24 1028.78 1030.16 1030.16 1029.08 1028.93 1029.49 1028.50 1028.05
1019.53 1019.62 1019.64 1021.22 1020.96 1020.83 1020.25 1020.53 1020.77 1021.42 1022.27 1022.40 1022.82 1023.58 1024.09 1024.04 1024.00 1023.95 1023.78 1023.76 1023.86 1024.02 1023.72 1023.20 1022.69 1022.12 1020.59 1020.26 1021.43 1022.80 1024.05 1025.21 1025.21 1026.79 1027.80 1027.18 1027.74 1029.53 1030.11 1030.44 1030.86 1030.38 1030.32 1030.06 1029.29
Thickness
5619 5621 5621 5621 5622 5623 5624 5623 5623 5619 5618 5617 5616 5615 5612 5609 5610 5609 5601 5590 5587 5581 5577 5576 5574 5567 5568 5564 5561 5561 5562 5570 5574 5572 5577 5578 5560 5551 5552 5549 5560 5574 5588 5600 5613
5615 5617 5618 5616 5618 5619 5622 5620 5620 5617 5614 5613 5611 5609 5606 5602 5607 5599 5588 5581 5576 5568 5565 5559 5555 5552 5554 5550 5550 5548 5556 5563 5570 5560 5554 5552 5545 5536 5525 5532 5542 5558 5572 5581 5592
5610 5615 5613 5613 5614 5616 5618 5617 5616 5614 5611 5611 5608 5604 5599 5595 5599 5589 5577 5569 5563 5555 5550 5545 5540 5538 5538 5540 5541 5544 5545 5552 5552 5547 5538 5535 5529 5525 5516 5525 5531 5541 5557 5565 5572
5606 5608 5607 5610 5611 5614 5616 5615 5613 5612 5611 5608 5604 5600 5595 5595 5592 5579 5567 5559 5550 5544 5539 5534 5530 5528 5529 5530 5531 5525 5531 5528 5526 5522 5519 5516 5514 5516 5516 5529 5524 5530 5538 5542 5552
5601 5602 5603 5609 5609 5613 5613 5612 5610 5609 5608 5605 5600 5597 5595 5594 5580 5568 5557 5549 5541 5534 5527 5521 5517 5518 5517 5519 5515 5512 5513 5510 5509 5505 5502 5499 5501 5504 5509 5513 5520 5521 5523 5530 5539
5598 5598 5601 5605 5607 5611 5610 5609 5608 5607 5604 5600 5595 5591 5590 5585 5570 5559 5546 5538 5531 5523 5516 5510 5507 5502 5497 5497 5491 5497 5492 5491 5488 5488 5486 5483 5491 5490 5499 5505 5509 5513 5520 5523 5528
5595 5595 5599 5601 5605 5608 5607 5606 5605 5603 5598 5594 5590 5589 5589 5571 5560 5549 5538 5529 5518 5511 5506 5502 5495 5485 5486 5481 5477 5468 5464 5471 5476 5479 5476 5475 5475 5485 5494 5494 5499 5504 5511 5518 5523
5592 5594 5597 5600 5602 5604 5603 5603 5602 5598 5595 5588 5584 5584 5581 5565 5553 5540 5529 5520 5513 5508 5499 5488 5479 5471 5466 5465 5462 5456 5463 5461 5477 5471 5469 5461 5470 5484 5488 5490 5491 5494 5501 5510 5518
5590 5592 5594 5596 5597 5600 5600 5599 5598 5595 5589 5585 5585 5578 5574 5557 5546 5530 5525 5516 5509 5500 5491 5478 5468 5465 5461 5455 5462 5472 5450 5457 5460 5458 5454 5448 5459 5469 5473 5475 5478 5483 5488 5497 5508
5588 5589 5591 5592 5594 5597 5597 5595 5593 5590 5588 5584 5580 5574 5566 5548 5534 5525 5517 5512 5501 5496 5485 5477 5468 5462 5461 5450 5434 5432 5431 5440 5442 5453 5447 5435 5448 5461 5466 5470 5476 5481 5485 5490 5494
5585 5586 5587 5589 5591 5591 5595 5596 5597 5597 5588 5572 5567 5563 5553 5535 5528 5523 5512 5513 5504 5500 5484 5476 5465 5453 5441 5434 5428 5419 5412 5420 5437 5448 5439 5436 5446 5452 5454 5453 5450 5459 5472 5478 5481
5581 5583 5584 5586 5587 5587 5590 5589 5568 5562 5579 5563 5557 5551 5541 5527 5524 5515 5507 5503 5498 5493 5483 5480 5464 5446 5435 5429 5426 5421 5416 5417 5432 5433 5412 5416 5434 5441 5430 5429 5429 5427 5435 5443 5451
5578 5580 5582 5583 5583 5583 5578 5568 5561 5560 5581 5568 5555 5549 5535 5523 5515 5508 5500 5495 5487 5487 5472 5465 5455 5443 5433 5429 5418 5408 5399 5394 5384 5386 5397 5408 5419 5416 5417 5420 5410 5409 5413 5422 5426
5575 5576 5578 5581 5581 5579 5571 5562 5558 5556 5582 5569 5562 5543 5533 5522 5515 5504 5491 5480 5489 5472 5460 5462 5453 5438 5426 5414 5410 5393 5397 5381 5375 5358 5376 5390 5414 5390 5393 5384 5384 5391 5398 5405 5412
5572 5572 5573 5576 5578 5578 5564 5560 5556 5557 5586 5570 5553 5534 5525 5517 5498 5504 5495 5482 5471 5459 5448 5456 5444 5430 5406 5414 5404 5383 5389 5382 5378 5360 5361 5393 5383 5357 5372 5361 5368 5376 5384 5390 5402
5569 5569 5570 5573 5573 5563 5559 5557 5557 5569 5580 5561 5544 5533 5526 5519 5503 5497 5496 5485 5468 5460 5464 5448 5445 5429 5419 5408 5403 5386 5384 5403 5398 5395 5398 5399 5396 5358 5340 5331 5342 5352 5361 5376 5432
5566 5566 5567 5567 5572 5560 5556 5561 5572 5576 5560 5549 5531 5529 5520 5508 5501 5494 5493 5483 5448 5442 5446 5454 5450 5433 5413 5403 5399 5382 5380 5413 5419 5415 5396 5394 5398 5338 5320 5318 5316 5322 5336 5378 5417
5562 5563 5563 5562 5560 5557 5558 5581 5578 5529 5534 5537 5528 5526 5518 5496 5499 5493 5492 5477 5452 5432 5434 5431 5442 5422 5400 5379 5352 5369 5356 5348 5370 5383 5385 5397 5359 5351 5318 5306 5303 5304 5323 5365 5382
5558 5562 5563 5560 5557 5554 5572 5568 5545 5534 5525 5521 5523 5521 5516 5503 5488 5499 5493 5468 5447 5427 5413 5417 5436 5433 5399 5383 5365 5358 5344 5343 5339 5355 5368 5372 5364 5347 5323 5306 5303 5309 5327 5341 5358
5556 5560 5566 5555 5553 5557 5556 5551 5529 5521 5515 5505 5515 5496 5497 5489 5491 5490 5491 5470 5452 5442 5427 5415 5409 5440 5417 5388 5369 5356 5348 5346 5361 5361 5392 5390 5344 5296 5292 5292 5296 5300 5307 5323 5342
5549 5554 5556 5552 5550 5566 5542 5530 5514 5512 5509 5499 5498 5496 5488 5478 5478 5478 5486 5479 5460 5447 5436 5417 5403 5437 5426 5371 5349 5354 5341 5346 5340 5346 5357 5377 5335 5280 5274 5272 5275 5283 5296 5310 5328
5546 5540 5549 5547 5549 5529 5533 5518 5513 5513 5504 5501 5498 5491 5480 5470 5468 5476 5482 5479 5461 5448 5433 5430 5411 5424 5411 5382 5375 5348 5329 5338 5361 5344 5339 5342 5334 5282 5269 5269 5274 5280 5289 5306 5321
5541 5552 5546 5546 5552 5531 5508 5509 5513 5511 5509 5500 5499 5492 5468 5468 5467 5466 5481 5478 5460 5448 5429 5425 5443 5447 5448 5397 5397 5370 5344 5338 5340 5342 5325 5347 5348 5299 5276 5273 5274 5276 5285 5301 5315
5537 5533 5535 5537 5536 5544 5524 5517 5507 5505 5506 5501 5501 5493 5472 5461 5459 5461 5475 5477 5461 5447 5434 5426 5431 5421 5412 5388 5367 5359 5349 5352 5352 5360 5335 5313 5305 5293 5279 5275 5272 5275 5283 5296 5309
5526 5528 5514 5530 5529 5540 5538 5524 5514 5505 5499 5498 5497 5486 5486 5473 5461 5456 5474 5480 5468 5453 5445 5433 5443 5410 5409 5397 5387 5373 5360 5345 5339 5328 5345 5325 5314 5287 5283 5274 5275 5275 5282 5300 5312
5524 5523 5506 5511 5526 5538 5526 5525 5533 5512 5508 5496 5489 5490 5477 5474 5484 5473 5468 5477 5467 5458 5452 5438 5453 5418 5423 5411 5392 5408 5381 5375 5350 5334 5339 5337 5331 5299 5277 5277 5283 5284 5281 5294 5301
5518 5522 5535 5505 5517 5525 5540 5528 5529 5523 5509 5508 5503 5490 5470 5476 5477 5471 5470 5465 5457 5443 5440 5443 5440 5445 5486 5447 5425 5424 5390 5370 5371 5342 5327 5347 5327 5305 5290 5284 5279 5285 5290 5296 5310